CW0565 Weather Reports


time (UTC)temp
F
wind
direction
speed
knots
gust
knots
rain 1hr
in
rain 24hr
in
rain mn
in
humidity
%
barometer
mb
20260506153009 51 187 7.0 11.3 0.00 0.00 0.00 33 1011.5
20260506150010 50 166 7.8 17.4 0.00 0.00 0.00 33 1011.6
20260506144510 49 177 7.0 13.0 0.00 0.00 0.00 35 1011.6
20260506143010 50 161 7.8 13.0 0.00 0.00 0.00 32 1011.7
20260506141509 50 170 8.7 12.2 0.00 0.00 0.00 31 1011.7
20260506140010 50 208 7.0 13.9 0.00 0.00 0.00 31 1011.8
20260506134509 50 197 8.7 13.0 0.00 0.00 0.00 32 1011.9
20260506133013 50 180 4.3 13.0 0.00 0.00 0.00 32 1011.9
20260506131516 49 180 7.0 14.8 0.00 0.00 0.00 34 1011.9
20260506130015 49 216 6.1 13.0 0.00 0.00 0.00 35 1012.0
20260506124509 49 205 7.8 17.4 0.00 0.00 0.00 37 1012.0
20260506123009 49 206 7.8 13.9 0.00 0.00 0.00 37 1012.1
20260506121510 48 148 9.6 14.8 0.00 0.00 0.00 35 1012.1
20260506120010 48 201 8.7 13.9 0.00 0.00 0.00 34 1012.2
20260506114511 49 167 6.1 13.0 0.00 0.00 0.00 33 1012.3
20260506113010 48 125 7.8 14.8 0.00 0.00 0.00 32 1012.2
20260506111510 48 150 7.8 13.9 0.00 0.00 0.00 32 1012.2
20260506110010 49 184 7.0 13.0 0.00 0.00 0.00 29 1012.3
20260506104511 51 169 7.0 11.3 0.00 0.00 0.00 28 1012.2
20260506103023 54 44 0.0 10.4 0.00 0.00 0.00 16 1012.2
20260506101511 55 348 3.5 9.6 0.00 0.00 0.00 17 1012.3
20260506100010 55 348 0.0 7.0 0.00 0.00 0.00 15 1012.5
20260506094525 52 19 3.5 9.6 0.00 0.00 0.00 18 1012.4
20260506093009 54 31 2.6 7.8 0.00 0.00 0.00 20 1012.5
20260506091509 53 74 2.6 5.2 0.00 0.00 0.00 20 1012.6
20260506090009 52 76 0.0 3.5 0.00 0.00 0.00 24 1012.7
20260506084510 52 14 0.9 7.0 0.00 0.00 0.00 25 1012.6
20260506083010 49 76 2.6 5.2 0.00 0.00 0.00 28 1012.8
20260506081510 49 73 1.7 7.0 0.00 0.00 0.00 28 1012.8
20260506073009 49 30 0.9 5.2 0.00 0.00 0.00 31 1012.8
20260506071510 46 27 1.7 7.8 0.00 0.00 0.00 39 1012.8
20260506061510 41 19 3.5 7.8 0.00 0.00 0.00 49 1012.8
20260506044517 31 16 4.3 7.0 0.00 0.00 0.00 73 1013.1
20260506043014 30 355 2.6 7.0 0.00 0.00 0.00 75 1013.1
20260506041510 30 350 3.5 5.2 0.00 0.00 0.00 76 1013.1
20260506040009 29 350 2.6 5.2 0.00 0.00 0.00 78 1013.0
20260506034510 29 348 3.5 7.0 0.00 0.00 0.00 78 1012.9
20260506033009 29 350 2.6 5.2 0.00 0.00 0.00 79 1012.9
20260506031514 29 351 3.5 7.0 0.00 0.00 0.00 78 1012.7
20260506030010 29 355 3.5 7.0 0.00 0.00 0.00 77 1012.7
20260506024510 29 355 3.5 5.2 0.00 0.00 0.00 77 1012.7
20260506023010 30 355 4.3 7.0 0.00 0.00 0.00 75 1012.8
20260506021509 30 360 4.3 7.0 0.00 0.00 0.00 76 1012.8
20260506020010 30 360 4.3 5.2 0.00 0.00 0.00 76 1012.7
20260506014511 30 355 3.5 4.3 0.00 0.00 0.00 75 1012.7
20260506013011 30 360 4.3 7.0 0.00 0.00 0.00 73 1012.6
20260506011510 30 355 5.2 7.0 0.00 0.00 0.00 73 1012.6
20260506010011 30 355 5.2 7.0 0.00 0.00 0.00 72 1012.6
20260506004509 31 360 4.3 7.0 0.00 0.00 0.00 71 1012.6
20260506003009 31 5 4.3 5.2 0.00 0.00 0.00 69 1012.6
20260506001509 32 11 2.6 7.0 0.00 0.00 0.00 68 1012.5
20260506000010 32 9 3.5 5.2 0.00 0.00 0.00 67 1012.5
20260505234518 33 5 5.2 7.0 0.00 0.00 0.00 65 1012.5
20260505233015 34 16 2.6 4.3 0.00 0.00 0.00 62 1012.5
20260505231513 34 17 2.6 4.3 0.00 0.00 0.00 64 1012.5
20260505230012 35 21 2.6 4.3 0.00 0.00 0.00 62 1012.5
20260505224510 36 24 0.9 2.6 0.00 0.00 0.00 58 1012.5
20260505223011 37 24 0.9 3.5 0.00 0.00 0.00 57 1012.5
20260505221504 38 24 1.7 4.3 0.00 0.00 0.00 53 1012.4
20260505220011 38 28 2.6 5.2 0.00 0.00 0.00 53 1012.4
20260505214510 38 27 1.7 7.0 0.00 0.00 0.00 53 1012.4
20260505213012 38 24 2.6 5.2 0.00 0.00 0.00 54 1012.4
20260505211509 40 11 3.5 4.3 0.00 0.00 0.00 49 1012.4
20260505210011 40 9 2.6 6.1 0.00 0.00 0.00 47 1012.4
20260505204522 41 321 1.7 4.3 0.00 0.00 0.00 44 1012.3
20260505203009 42 321 1.7 3.5 0.00 0.00 0.00 42 1012.2
20260505201510 42 292 1.7 4.3 0.00 0.00 0.00 40 1012.1
20260505200019 43 288 1.7 5.2 0.00 0.00 0.00 38 1012.0
20260505194509 44 281 1.7 8.7 0.00 0.00 0.00 36 1011.8
20260505193010 45 349 3.5 8.7 0.00 0.00 0.00 36 1011.7
20260505191510 45 332 2.6 8.7 0.00 0.00 0.00 34 1011.7
20260505190010 46 333 5.2 11.3 0.00 0.00 0.00 34 1011.4
20260505183029 48 349 4.3 13.0 0.00 0.00 0.00 33 1011.0
20260505181511 50 298 5.2 10.4 0.00 0.00 0.00 29 1010.9
20260505180010 50 348 6.1 15.6 0.00 0.00 0.00 28 1010.7
20260505173018 51 355 6.1 11.3 0.00 0.00 0.00 27 1010.5
20260505171509 51 5 5.2 11.3 0.00 0.00 0.00 28 1010.5
20260505170011 52 317 4.3 13.0 0.00 0.00 0.00 26 1010.3
20260505164510 52 336 3.5 16.5 0.00 0.00 0.00 25 1010.3
20260505163010 53 321 0.9 8.7 0.00 0.00 0.00 25 1010.2
20260505161509 53 351 4.3 11.3 0.00 0.00 0.00 26 1010.2